ECMWFNIL_prec_cthk_003.txt.gz
RH
44 40 32 26 24 25 26 25 26 28 26 26 28 28 30 28 22 22 20 14 13 14 13 13 13 12 12 12 14 16 13 12 12 13 13 13 13 13 12 13 13 13
44 44 38 33 30 29 28 27 27 29 29 28 30 31 34 33 28 26 23 17 16 15 14 15 14 14 14 13 14 14 14 14 13 14 13 13 13 13 12 12 12 12
46 48 45 42 41 39 37 32 29 31 32 33 36 37 40 39 34 32 28 24 21 19 17 17 16 15 15 14 15 16 15 15 15 15 14 15 14 14 13 13 12 12
46 50 53 54 54 52 50 44 37 36 36 38 40 41 44 45 41 38 35 32 30 27 24 22 20 19 18 16 16 16 15 15 16 16 16 16 15 15 15 14 13 13
46 51 58 63 65 63 58 54 51 47 44 42 42 42 46 46 44 42 41 39 38 36 34 33 31 30 27 25 24 21 20 18 17 17 17 16 16 16 16 16 16 15
50 54 59 64 66 66 63 62 60 56 52 50 47 45 47 47 46 45 43 42 43 42 39 38 37 37 37 36 34 32 31 30 27 23 23 21 19 18 17 17 17 18
58 62 64 64 63 63 65 66 64 58 56 58 56 52 51 50 48 48 47 44 45 45 44 43 42 41 40 41 40 39 39 40 36 34 35 34 28 24 22 20 18 19
62 64 67 67 64 61 62 66 68 66 64 63 61 58 58 56 52 51 51 48 47 49 50 50 47 44 42 42 43 43 41 41 40 40 44 44 39 35 33 29 24 22
66 66 67 68 65 61 60 62 67 71 71 67 66 66 65 63 58 54 55 54 52 52 53 55 54 50 44 41 43 45 45 45 43 42 44 44 42 42 42 39 33 30
70 68 70 71 69 65 62 61 63 67 68 66 68 68 65 66 66 59 58 59 58 56 56 56 55 51 46 44 43 43 46 49 50 47 46 46 45 45 46 44 40 38
73 73 73 72 72 72 71 69 71 73 71 68 69 67 63 69 74 67 61 61 61 59 58 57 56 54 50 48 45 44 46 49 50 49 48 48 49 48 46 45 44 44
74 77 77 75 76 77 76 76 78 79 77 73 72 72 69 70 73 71 68 66 62 59 57 56 58 58 56 52 46 44 46 46 46 46 46 46 48 48 46 45 44 44
72 76 77 77 77 75 76 79 81 82 80 75 73 75 75 72 70 68 67 69 67 63 59 56 55 55 57 57 51 46 45 44 43 42 41 41 43 45 46 44 40 39
68 71 72 72 70 69 70 74 77 79 81 77 72 72 74 76 74 67 65 70 70 66 64 60 56 54 55 58 62 61 55 51 51 49 44 42 41 42 44 42 40 38
62 67 71 69 68 69 69 70 70 71 74 75 73 72 72 75 75 70 68 69 67 65 66 63 59 54 51 55 65 68 63 60 60 57 53 49 45 43 43 43 41 41
56 59 63 63 66 67 67 68 68 67 69 71 72 72 72 73 72 70 67 64 61 62 64 62 59 55 52 56 63 66 64 63 61 58 58 58 54 50 47 45 42 39
53 50 49 51 55 60 64 67 69 70 72 72 71 70 70 71 70 67 64 61 58 60 60 57 56 55 54 56 60 63 63 61 59 59 59 58 59 60 56 50 45 39
57 53 51 51 52 56 61 64 65 67 71 71 72 72 71 73 71 66 65 62 59 60 61 58 56 57 59 61 62 62 60 56 54 56 59 61 65 69 62 52 45 41
62 60 59 57 56 56 58 59 58 60 61 63 66 66 63 64 64 64 66 65 61 61 62 57 55 57 61 65 67 65 62 58 53 57 64 66 64 63 57 47 41 38
65 65 63 62 60 59 58 58 58 60 60 60 60 59 55 55 57 59 64 63 62 61 59 53 52 55 60 65 69 68 67 65 60 60 65 63 56 57 57 49 40 35
61 61 60 59 58 58 58 58 57 58 58 57 55 53 52 52 52 51 51 52 54 55 54 51 52 56 57 58 60 60 62 65 63 62 66 66 62 59 56 47 40 36
50 50 49 49 49 50 50 49 49 50 50 48 47 45 44 45 44 42 39 41 44 45 45 44 45 48 48 48 50 52 56 61 64 66 66 62 58 55 52 47 44 42
42 42 42 41 41 42 41 40 40 39 40 40 39 38 37 37 38 38 37 37 39 40 40 40 42 44 44 44 47 51 57 60 60 61 60 56 57 60 58 53 51 49
40 40 39 39 39 38 38 37 37 37 38 38 37 36 37 36 37 41 41 39 38 39 38 40 43 44 43 44 45 49 56 57 55 58 62 63 64 63 58 54 54 51
41 40 40 40 39 38 37 37 37 38 39 40 39 39 38 36 38 42 44 43 42 43 42 42 44 44 43 45 45 47 54 56 56 61 65 63 61 58 55 55 55 51
42 42 43 43 43 41 40 40 39 39 40 41 41 40 38 38 42 44 46 49 49 49 46 44 44 43 42 43 44 47 53 53 52 57 60 60 59 57 54 53 53 49

ECMWFNIL_prec_cthk_006.txt.gz
RH
34 34 31 29 30 28 28 29 28 27 27 28 28 28 25 20 16 14 13 13 13 13 13 12 12 12 12 14 15 13 12 12 12 12 12 12 11 11 11 10 11 11
35 35 33 30 30 31 30 31 31 29 29 30 32 32 31 27 23 19 17 16 15 14 14 13 13 13 12 13 14 13 13 13 13 13 13 13 12 12 11 11 11 10
40 39 38 36 35 37 36 35 33 32 32 32 33 34 34 32 30 27 24 22 21 19 18 17 16 16 15 15 15 15 15 15 15 15 14 14 13 13 12 12 12 12
47 45 43 43 42 43 45 45 42 38 36 34 36 38 39 38 36 33 31 31 31 29 28 27 26 26 25 25 24 24 23 22 21 20 19 19 18 16 16 15 14 14
54 52 48 46 45 47 51 52 50 46 42 40 41 43 44 44 41 38 35 35 36 37 37 37 36 35 34 34 34 32 32 30 29 28 27 26 25 24 22 21 19 18
59 58 56 53 49 48 51 54 56 55 50 47 46 47 49 48 46 44 41 39 38 38 39 40 41 41 39 38 37 36 36 35 35 34 33 32 32 30 29 28 27 26
62 63 62 59 54 51 52 57 61 61 57 54 52 51 50 50 51 51 48 46 44 42 41 42 42 44 43 42 40 38 38 39 39 40 39 38 37 35 35 35 34 34
64 66 66 63 58 56 56 61 63 62 61 59 56 55 53 53 54 55 55 55 53 50 49 47 45 44 44 44 42 39 38 38 38 40 42 42 41 38 37 38 38 39
65 68 70 66 62 59 61 65 66 64 64 62 59 57 57 59 59 58 58 60 60 59 57 54 51 49 47 46 44 40 38 37 37 38 41 43 43 41 41 41 40 40
66 71 74 71 65 63 65 70 71 69 67 65 64 62 61 63 63 60 59 61 61 62 62 60 59 57 55 52 48 44 43 42 39 38 39 40 41 41 42 42 41 40
70 74 78 76 71 66 66 70 73 74 72 71 73 74 69 67 66 63 62 61 60 62 64 64 63 61 59 58 57 56 52 48 45 44 43 43 42 41 40 40 39 37
75 79 82 80 76 72 71 73 77 80 81 81 83 82 78 77 75 71 68 66 63 65 68 69 68 64 61 58 58 60 59 57 56 55 53 50 48 46 43 39 37 35
75 80 82 78 74 75 75 77 79 78 77 80 84 85 85 83 78 75 75 74 71 70 70 72 72 70 68 64 59 55 55 56 56 55 57 57 55 52 48 44 42 41
69 71 74 72 70 70 70 73 76 75 73 77 81 83 85 85 79 78 80 79 77 73 71 72 71 71 70 69 65 60 56 54 52 51 56 61 61 58 53 49 49 48
59 59 62 64 66 66 65 67 70 70 70 73 76 78 82 83 82 82 83 80 78 75 72 70 68 66 65 62 63 66 62 57 54 52 54 60 64 63 59 55 53 49
53 55 57 62 67 69 69 68 68 69 69 71 76 79 79 77 77 79 81 80 78 76 75 71 65 62 61 57 59 62 59 55 54 53 53 55 58 61 61 58 53 47
52 54 55 57 61 64 66 68 67 67 68 69 73 73 71 70 71 74 76 77 76 75 75 74 70 65 63 61 61 60 55 53 54 52 53 55 55 55 57 58 55 51
50 52 52 51 51 53 58 61 61 61 63 66 67 65 62 61 62 62 65 68 70 72 74 75 71 65 61 61 61 61 57 53 52 53 55 57 55 52 54 56 56 56
48 52 55 56 54 55 57 58 57 59 64 65 65 64 62 58 53 49 47 47 51 56 60 61 58 55 55 56 56 59 57 52 55 58 58 57 55 54 55 57 56 57
45 50 57 61 61 60 59 59 59 63 68 69 67 65 63 61 56 51 45 39 37 39 42 45 47 49 51 54 55 56 56 55 60 65 63 59 59 56 55 56 55 53
42 44 48 52 54 54 54 55 56 59 65 68 68 66 64 61 59 56 51 45 40 40 41 45 49 50 51 53 54 54 55 57 62 66 63 57 53 49 47 48 50 52
41 40 41 41 42 43 45 46 48 50 54 59 61 61 61 59 56 54 53 49 46 44 45 46 48 48 48 50 49 50 56 61 61 59 54 48 44 44 47 49 51 55
40 40 40 39 38 38 38 40 41 41 44 48 51 52 53 52 51 49 49 49 47 45 44 43 42 42 45 46 45 45 52 56 53 49 45 43 42 43 47 50 51 53
41 41 42 42 40 39 37 36 35 33 35 40 42 43 43 43 44 44 45 45 43 42 42 42 40 42 45 47 43 42 43 44 43 43 43 43 45 46 48 51 51 52
40 42 43 42 42 41 38 36 33 32 34 39 41 42 42 42 41 41 41 41 40 40 42 43 43 44 46 47 47 46 44 42 42 44 46 48 50 52 52 53 52 52
38 40 42 43 44 44 43 40 37 36 38 42 45 47 46 43 42 40 40 39 39 40 42 43 44 44 42 43 47 47 45 43 44 48 50 50 50 50 51 51 52 52

ECMWFNIL_prec_cthk_009.txt.gz
RH
45 36 31 29 27 26 26 22 19 20 20 20 19 16 15 14 13 12 12 12 12 12 12 11 11 11 11 11 12 12 12 12 11 12 11 11 11 11 10 10 10 10
48 39 33 30 28 28 30 28 24 23 24 26 27 26 24 21 18 17 15 14 14 13 13 13 14 14 14 15 16 16 16 16 16 15 15 14 12 12 11 10 10 10
54 43 37 33 31 31 35 35 32 31 30 31 33 32 32 28 25 24 23 21 20 19 19 18 19 19 20 21 21 22 22 22 21 21 21 20 19 17 16 14 13 12
58 48 41 38 37 36 39 40 40 39 37 36 37 37 38 35 33 31 30 30 29 28 27 27 27 27 28 29 29 29 29 28 27 26 26 25 25 24 23 23 21 20
60 55 48 44 44 43 44 44 43 44 43 40 40 44 45 42 41 40 39 37 36 36 35 35 35 35 35 35 35 35 35 34 34 32 32 31 31 30 30 30 29 28
64 62 55 51 50 49 49 49 46 47 48 46 45 49 52 50 48 47 45 44 43 43 43 42 41 40 39 39 38 38 38 38 37 36 35 35 34 34 34 34 34 34
69 64 60 57 55 54 53 52 50 49 51 52 53 55 56 55 54 53 52 50 49 48 47 46 46 46 45 44 43 42 40 40 39 38 38 37 37 37 36 36 35 36
68 64 63 61 59 59 58 55 55 53 51 53 56 59 59 59 58 58 58 58 57 56 53 52 52 50 48 47 46 45 42 40 39 38 38 38 39 39 39 39 38 37
65 64 66 66 63 63 61 59 60 60 57 54 55 61 65 65 64 62 62 63 63 63 62 62 63 60 56 53 50 49 46 42 39 38 38 38 39 40 41 40 39 38
67 65 68 70 67 65 64 63 65 67 66 63 61 64 68 71 73 69 65 66 66 67 67 66 67 67 65 63 60 58 54 49 46 44 42 42 41 42 43 42 40 39
71 70 71 71 68 67 67 68 70 72 72 70 69 67 68 73 77 76 74 74 74 72 70 68 68 69 68 69 68 67 65 61 57 54 53 51 49 48 47 46 46 44
71 70 69 69 69 70 70 71 75 77 78 78 75 71 69 72 76 78 78 79 79 79 77 73 71 70 69 70 71 70 69 65 61 58 56 54 52 51 49 50 51 50
70 68 68 69 70 71 72 72 74 77 80 81 80 75 71 72 74 76 77 76 77 81 83 80 77 74 71 71 73 72 69 65 61 58 56 55 52 48 46 48 51 53
64 64 67 70 71 73 75 75 75 76 78 80 80 78 75 72 71 72 74 73 73 77 80 81 80 78 74 73 73 72 70 67 63 59 59 58 55 48 44 43 46 50
53 54 56 60 62 65 68 70 72 73 73 73 73 73 74 72 70 70 70 72 73 75 77 78 80 79 77 74 73 73 73 71 68 65 62 60 57 53 50 48 48 50
45 46 47 51 53 56 58 61 63 64 64 64 63 65 68 70 70 70 69 69 69 68 69 72 76 78 78 76 74 73 73 72 70 69 65 61 57 55 54 53 53 52
45 46 48 50 52 54 55 56 57 56 57 60 61 64 69 71 70 69 68 67 64 61 61 64 68 73 76 77 76 74 73 72 70 68 65 62 59 56 57 56 54 53
46 48 49 52 55 55 54 54 55 53 52 53 55 58 61 62 65 67 67 66 63 59 57 58 62 66 68 70 71 70 69 68 66 63 61 59 56 54 55 56 55 56
42 43 44 48 52 53 53 53 56 56 54 51 52 55 55 55 58 62 63 60 57 53 52 54 57 58 57 57 58 58 57 54 52 50 49 49 48 50 54 56 59 62
38 39 41 42 45 46 47 47 49 53 55 55 55 58 60 60 63 66 64 59 55 51 49 49 51 50 49 49 52 55 54 51 50 52 52 51 51 53 56 57 60 62
38 38 39 37 37 38 39 40 40 43 47 50 52 54 56 58 63 67 66 61 56 51 47 46 46 47 46 47 51 55 55 54 55 58 58 56 54 57 63 65 65 64
41 41 40 37 35 34 34 35 35 35 37 38 40 43 46 48 52 57 60 59 56 54 52 50 49 48 47 46 49 52 52 52 53 55 58 59 59 64 71 72 68 62
45 46 45 42 37 35 34 34 33 33 33 32 33 35 38 41 43 46 49 51 52 52 50 47 45 44 43 43 45 48 49 49 48 50 54 56 56 58 60 59 58 55
46 46 46 43 40 37 36 36 36 35 34 33 32 33 35 39 41 42 41 41 42 41 40 39 38 38 39 40 42 44 46 45 44 44 46 47 47 46 46 47 49 49
46 45 44 42 39 37 36 38 40 41 38 36 35 34 36 40 43 43 41 41 40 39 38 38 38 39 39 39 40 43 44 43 42 41 42 43 43 42 41 41 41 41
45 44 42 39 38 37 36 38 40 41 41 39 36 35 37 42 45 44 42 42 42 42 43 43 43 43 43 43 44 46 45 41 39 40 42 41 40 41 41 39 38 43

ECMWFNIL_prec_cthk_012.txt.gz
RH
76 76 69 56 42 34 33 30 24 23 20 15 14 14 14 13 12 11 11 10 11 11 11 11 11 11 11 11 11 12 12 12 12 11 11 11 10 10 10 10 10 10
76 78 71 57 43 36 35 33 28 24 22 19 16 16 16 16 15 14 13 13 13 13 14 14 14 15 16 17 17 17 17 16 16 15 15 14 13 12 11 11 10 10
72 77 73 58 45 39 39 38 34 31 28 25 21 20 21 21 19 18 16 17 17 17 19 20 21 22 23 23 24 24 24 23 22 22 21 21 19 19 18 17 16 15
70 76 73 60 49 45 44 42 40 38 36 33 29 26 26 27 27 25 23 22 21 22 23 24 25 26 27 27 27 27 27 26 26 26 26 25 25 25 25 24 24 23
71 76 70 62 56 51 49 48 46 45 43 41 38 34 32 33 35 36 34 32 31 29 29 29 29 30 29 30 30 30 30 30 30 31 31 31 32 32 32 31 31 30
68 75 71 68 64 55 53 54 52 51 48 46 44 42 40 38 39 42 42 41 40 39 37 37 36 36 35 35 35 35 35 34 35 36 36 36 36 37 36 36 35 35
61 69 70 71 69 62 59 58 56 55 53 51 49 49 48 44 43 44 45 46 46 45 44 43 42 41 40 40 41 41 40 40 40 40 40 39 39 38 38 37 37 37
55 61 64 68 69 68 65 61 59 58 56 54 54 56 58 57 53 49 47 49 50 49 48 48 48 48 46 45 45 44 43 42 42 42 41 40 39 38 39 38 38 37
54 63 69 70 67 67 68 66 64 63 60 58 58 59 61 63 63 60 57 56 55 54 53 52 52 53 53 52 50 49 48 46 45 43 42 41 40 40 40 41 41 40
57 66 75 78 74 69 69 70 70 71 68 65 63 63 64 64 65 65 65 64 64 62 60 56 56 56 56 56 55 55 55 56 55 53 50 48 46 46 46 46 46 46
65 67 70 77 80 78 76 73 72 74 75 74 71 69 69 69 67 66 66 66 67 69 68 66 64 64 63 63 62 61 60 61 62 62 61 59 55 52 50 50 50 49
74 70 68 71 73 76 81 81 78 76 76 76 77 75 73 73 71 69 69 68 68 70 72 72 73 73 73 72 70 70 68 64 63 64 65 65 62 58 54 52 50 47
75 75 77 77 75 75 78 82 83 83 81 80 81 79 76 74 72 70 71 73 72 70 69 71 73 75 76 76 77 78 77 72 68 66 66 66 64 60 56 53 50 47
67 71 79 85 86 81 77 76 78 82 86 88 87 84 78 73 70 69 70 71 72 72 70 70 71 71 73 74 77 82 82 76 72 69 68 67 65 62 59 57 55 52
66 67 74 81 82 77 72 71 70 72 78 81 81 80 74 68 66 65 65 66 68 70 71 72 72 71 71 70 74 80 81 76 74 73 72 71 69 66 65 63 61 58
59 59 64 69 70 67 65 63 63 64 66 67 67 66 65 64 64 62 61 62 63 64 65 68 70 72 71 68 69 73 74 73 75 77 77 77 74 71 69 66 63 60
49 51 55 59 60 59 57 56 58 60 62 63 65 65 66 66 64 60 59 60 61 61 60 63 67 69 70 68 67 67 67 67 69 70 72 73 72 71 71 68 63 58
45 49 53 54 53 52 51 53 55 56 58 60 62 64 63 59 56 54 54 54 55 56 56 58 62 63 64 64 64 63 64 64 63 63 64 65 64 65 66 66 64 63
43 44 45 44 44 44 46 48 49 49 51 53 54 55 54 51 50 49 49 50 51 52 54 57 59 59 58 58 58 60 62 64 63 63 63 62 61 60 59 59 62 65
45 44 41 40 39 38 38 40 42 43 44 45 47 49 49 49 48 48 49 51 53 53 53 53 54 52 50 48 48 50 53 56 56 57 58 59 59 58 58 62 68 70
49 49 47 44 41 38 37 37 39 41 42 42 43 44 47 47 47 47 49 51 52 53 51 48 46 44 43 42 43 42 43 44 47 51 54 56 57 56 59 64 68 66
52 52 50 48 44 41 39 38 37 39 40 40 39 39 40 41 42 43 44 45 48 50 47 43 39 37 37 39 42 43 43 43 46 51 54 55 55 54 53 55 58 59
53 54 53 51 48 44 40 38 37 37 37 37 37 36 36 36 36 37 37 38 42 45 45 41 37 34 34 35 36 37 37 38 41 45 48 49 48 47 45 45 48 52
56 57 57 56 54 50 46 42 41 39 39 38 37 37 36 36 35 34 32 33 36 41 44 43 40 38 36 36 36 35 34 34 36 41 44 45 44 44 43 42 43 44
61 62 61 59 57 53 48 45 44 43 41 39 39 38 37 36 35 35 33 33 35 39 41 42 41 41 40 40 41 40 40 42 44 47 48 47 46 45 45 44 42 42
66 65 63 60 58 55 51 48 45 44 42 41 40 40 38 36 35 35 36 38 38 38 38 38 40 42 44 45 45 44 44 46 48 48 47 46 46 45 44 43 42 41